{"data":{"norad_id":68126,"epoch":"2026-05-24T23:47:57.420384Z","epoch_age_seconds":86179,"freshness":"FRESH","line1":"1 68126U 26045A   26144.99163681 -.00000060  00000+0  00000+0 0  9995","line2":"2 68126   0.0155  23.3418 0001350  37.8908  68.3464  1.00272648   765","mean_motion":1.00272648,"eccentricity":0.000135,"inclination_deg":0.0155,"raan_deg":23.3418,"arg_perigee_deg":37.8908,"mean_anomaly_deg":68.3464,"bstar":0,"rev_number":76,"period_min":1436.0845442119,"perigee_km":35780.660826544,"apogee_km":35792.045238852,"semimajor_km":42164.490032698,"source":"CELESTRAK","updated_at":"2026-05-25T13:38:14.190702Z"}}